Tracking 19245 objects as of 18-Aug-2018
HD Live streaming from Space Station
objects crossing your sky now

STTW-T1

Track STTW-T1 now!
10-day predictions
STTW-T1 is classified as:


NORAD ID: 14670
Int'l Code: 1984-008A
Perigee: 487.0 km
Apogee: 6,316.7 km
Inclination: 36.1 °
Period: 160.2 minutes
Semi major axis: 9772 km
RCS: 3.9341 m2 (large)
Launch date: January 29, 1984
Source: People's Republic of China (PRC)
Launch site: Xichang Space Center, China (XSC)
aabbcc
Your satellite tracking list
Your tracking list is empty




NASA's NSSDC Master Catalog

Two Line Element Set (TLE):
1 14670U 84008A   18227.17208758 +.00000049 +00000-0 +15597-4 0  9990
2 14670 036.1278 148.7486 2982558 261.9969 063.6556 08.98610565126161
Source of the keplerian elements: AFSPC